Tracking 19192 objects as of 21-Jun-2018
HD Live streaming from Space Station
objects crossing your sky now

SL-16 DEB

Track SL-16 DEB now!
10-day predictions


NORAD ID: 22453
Int'l Code: 1992-093ES
Perigee: 824.6 km
Apogee: 1,079.5 km
Inclination: 70.8 °
Period: 103.9 minutes
Semi major axis: 7323 km
RCS: 0.0192 m2 (small)
Launch date: December 25, 1992
Source: Commonwealth of Independent States (former USSR) (CIS)
Launch site: TYURATAM MISSILE AND SPACE COMPLEX (TTMTR)

Note: This is SATELLITE DEBRIS
aabbcc
Your satellite tracking list
Your tracking list is empty




NASA's NSSDC Master Catalog

Two Line Element Set (TLE):
1 22453U 92093ES  18171.39317771  .00000164  00000-0  16470-3 0  9997
2 22453  70.8059 282.5891 0174056 267.7814 149.0204 13.85377795282805
Source of the keplerian elements: AFSPC